Location: Limerick
(52.6800°N, 8.6400°W)
Time: 13:46:39
(UTC+01:00)

Sapphire - Visible Passes

Search period start: 19 October 2017 00:00
Search period end: 29 October 2017 00:00
Orbit: 786 x 796 km, 67.1° (Epoch: 18 October)

Date Brightness Start Highest point End Pass type
(mag) Time Alt. Az. Time Alt. Az. Time Alt. Az.
19 Oct ? 19:44:45 10° WNW 19:48:56 23° WSW 19:53:06 10° SSW visible
20 Oct ? 19:13:47 10° NW 19:18:26 30° WSW 19:23:04 10° S visible
23 Oct ? 19:26:57 10° W 19:29:04 12° WSW 19:31:11 10° SW visible
24 Oct ? 18:55:20 10° WNW 18:58:39 17° WSW 19:01:56 10° SW visible
26 Oct ? 07:28:49 10° SSE 07:32:49 21° ESE 07:36:49 10° ENE visible
27 Oct ? 06:59:06 10° SE 07:02:21 16° ESE 07:05:37 10° ENE visible
28 Oct ? 06:29:55 10° SE 06:31:56 12° ESE 06:33:58 10° E visible
